Flag for U.S.A. Weather past 2 weeks in Compton, California, U.S.A.

Now
62 °F

Scattered clouds.


Feels Like: 62 °F
Forecast: 57 / 72 °F
Wind: 5 mph from West

Location: Hawthorne Municipal Airport


UV Index: 5 (Moderate)

Visibility: 10 mi


Pressure: 29.98 "Hg

Humidity: 73%

Dew point: 53 °F

Location of ComptonLocation

Historic Weather in Compton

°F

Compton temperature yesterday

Maximum temperature yesterday: 70 °F (at 2:53 PM)
Minimum temperature yesterday: 60 °F (at 11:53 PM)
Average temperature yesterday: 64 °F

Past Weeks' High & Low Weather Summary

 TemperatureHumidityPressure
High85 °F (Apr 8, 1:53 PM)97% (Apr 10, 3:53 AM)30.10 "Hg (Apr 10, 3:53 AM)
Low52 °F (Apr 10, 3:53 AM)16% (Apr 8, 3:53 PM)29.80 "Hg (Apr 16, 5:53 PM)
Average62 °F62%29.97 "Hg
* Reported Apr 4 7:53 AM — Apr 19 7:53 AM, Compton, Weather by CustomWeather, © 2014

Note: Actual official high and low records may vary slightly from our data, if they occured in-between our weather recording intervals... More about our weather records

Advertising

Historic Weather Conditions — Data for Previous 24 hours

 ConditionsComfort  
Time TempWeatherWind HumidityBarometerVisibility
7:53 AM
Apr 19
59 °FSunny.3 mph81%29.98 "Hg9 mi
6:53 AM58 °FClear.No wind84%29.97 "Hg8 mi
5:53 AM57 °FPassing clouds.No wind83%29.95 "Hg9 mi
4:53 AM58 °FClear.No wind78%29.95 "Hg10 mi
3:53 AM59 °FClear.3 mph78%29.93 "Hg10 mi
2:53 AM60 °FClear.No wind72%29.94 "Hg10 mi
1:53 AM60 °FClear.No wind75%29.94 "Hg10 mi
12:53 AM61 °FClear.No wind72%29.94 "Hg10 mi
11:53 PM
Apr 18
60 °FClear.No wind78%29.94 "Hg10 mi
10:53 PM62 °FClear.No wind70%29.93 "Hg10 mi
9:53 PM62 °FClear.No wind70%29.93 "Hg10 mi
8:53 PM63 °FClear.5 mph65%29.92 "Hg10 mi
7:53 PM63 °FSunny.8 mph68%29.90 "Hg10 mi
6:53 PM64 °FSunny.6 mph63%29.89 "Hg10 mi
5:53 PM65 °FSunny.8 mph63%29.88 "Hg10 mi
4:53 PM66 °FPassing clouds.13 mph59%29.88 "Hg10 mi
3:53 PM67 °FScattered clouds.13 mph59%29.88 "Hg10 mi
2:53 PM70 °FPartly sunny.8 mph49%29.89 "Hg10 mi
1:53 PM69 °FPartly sunny.8 mph49%29.90 "Hg10 mi
12:53 PM69 °FPartly sunny.8 mph49%29.90 "Hg10 mi
11:53 AM69 °FPartly sunny.6 mph45%29.91 "Hg10 mi
10:53 AM68 °FPartly sunny.8 mph47%29.92 "Hg10 mi
9:53 AM65 °FOvercast.No wind59%29.93 "Hg10 mi
Weather by CustomWeather, © 2014

See weather overview